Avignon, France

5:53 AM CEST on July 28, 2016 (GMT +0200)
Caumont

Weather History for LFMV - July, 2013

Change the Weather History Date:

Wednesday, July 24, 2013

  Actual Average (LFTW) Record (LFTW)
Temperature  
Mean Temperature 81 °F -  
Max Temperature 96 °F 86 °F 96 °F (2006)
Min Temperature 66 °F 67 °F 55 °F (2010)
Cooling Degree Days 16    
Growing Degree Days 31 (Base 50)    
Moisture  
Dew Point 62 °F    
Average Humidity 57    
Maximum Humidity 88    
Minimum Humidity 23    
Precipitation  
Precipitation 0.00 in - - ()
Sea Level Pressure  
Sea Level Pressure 29.98 in    
Wind  
Wind Speed 3 mph ()    
Max Wind Speed 14 mph    
Max Gust Speed 23 mph    
Visibility 6.2 miles    
Events      
Averages and records for this station are not official NWS values.
T = Trace of Precipitation, MM = Missing Value Source: Averaged Metar Reports

Daily Weather History Graph

Daily Weather History Graph

Search for Another Location

Airport or City:

Trip Planner

Search our weather history database for the weather conditions in past years. The results will help you decide how hot, cold, wet, or windy it might be!

Date:

Astronomy

Jul. 24, 2013 Rise Set
Actual Time 6:20 AM CEST 9:12 PM CEST
Civil Twilight 5:46 AM CEST 9:46 PM CEST
Nautical Twilight 5:03 AM CEST 10:29 PM CEST
Astronomical Twilight 4:13 AM CEST 11:19 PM CEST
Moon 10:01 PM CEST (7/24) 8:27 AM CEST (7/24)
Length of Visible Light 16h 00m
Length of Day
14h 52m
Waning Gibbous, 96% of the Moon is Illuminated
Jul 24
Waning Gibbous
Jul 29
Last Quarter
Aug 6
New
Aug 14
First Quarter
Aug 21
Full

Hourly Weather History & Observations

Time (CEST) Temp. Heat Index Dew Point Humidity Pressure Visibility Wind Dir Wind Speed Gust Speed Precip Events Conditions
12:00 AM 71.6 °F - 64.4 °F 78% 29.98 in 6.2 mi SSE 3.5 mph - N/A   Unknown
12:30 AM 69.8 °F - 64.4 °F 83% 29.98 in 6.2 mi Calm Calm - N/A   Unknown
1:00 AM 71.6 °F - 66.2 °F 83% 30.01 in 6.2 mi North 3.5 mph - N/A   Unknown
1:30 AM 71.6 °F - 64.4 °F 78% 29.98 in 6.2 mi East 2.3 mph - N/A   Unknown
2:00 AM 71.6 °F - 66.2 °F 83% 29.98 in 6.2 mi ENE 3.5 mph - N/A   Unknown
2:30 AM 71.6 °F - 64.4 °F 78% 29.98 in 6.2 mi Variable 2.3 mph - N/A   Unknown
3:00 AM 71.6 °F - 64.4 °F 78% 29.98 in 6.2 mi Variable 2.3 mph - N/A   Unknown
3:30 AM 68.0 °F - 64.4 °F 88% 29.95 in 6.2 mi South 5.8 mph - N/A   Unknown
4:00 AM 69.8 °F - 64.4 °F 83% 29.95 in 6.2 mi Variable 3.5 mph - N/A   Unknown
4:30 AM 69.8 °F - 62.6 °F 78% 29.95 in 6.2 mi SSW 2.3 mph - N/A   Unknown
5:00 AM 66.2 °F - 62.6 °F 88% 29.98 in 6.2 mi Variable 2.3 mph - N/A   Unknown
5:30 AM 68.0 °F - 62.6 °F 83% 29.98 in 6.2 mi NE 2.3 mph - N/A   Unknown
6:00 AM 66.2 °F - 62.6 °F 88% 29.98 in 6.2 mi SE 1.2 mph - N/A   Unknown
6:30 AM 66.2 °F - 62.6 °F 88% 29.98 in 6.2 mi East 1.2 mph - N/A   Unknown
7:00 AM 66.2 °F - 62.6 °F 88% 29.98 in 6.2 mi South 3.5 mph - N/A   Unknown
7:30 AM 69.8 °F - 62.6 °F 78% 29.98 in 6.2 mi Variable 2.3 mph - N/A   Unknown
8:00 AM 71.6 °F - 60.8 °F 69% 30.01 in 6.2 mi Calm Calm - N/A   Unknown
8:30 AM 75.2 °F - 64.4 °F 69% 30.01 in 6.2 mi Variable 2.3 mph - N/A   Unknown
9:00 AM 77.0 °F - 64.4 °F 65% 30.01 in 6.2 mi Variable 2.3 mph - N/A   Unknown
9:30 AM 78.8 °F - 62.6 °F 57% 30.01 in 6.2 mi Calm Calm - N/A   Unknown
10:00 AM 80.6 °F 81.8 °F 62.6 °F 54% 30.01 in 6.2 mi Variable 3.5 mph - N/A   Unknown
10:30 AM 82.4 °F 83.4 °F 62.6 °F 51% 30.01 in 6.2 mi Variable 3.5 mph - N/A   Unknown
11:00 AM 82.4 °F 83.4 °F 62.6 °F 51% 30.01 in 6.2 mi North 4.6 mph - N/A   Unknown
11:30 AM 86.0 °F 86.6 °F 62.6 °F 45% 30.01 in 6.2 mi North 4.6 mph - N/A   Unknown
12:00 PM 86.0 °F 86.6 °F 62.6 °F 45% 30.01 in 6.2 mi NNW 4.6 mph - N/A   Unknown
12:30 PM 89.6 °F 88.1 °F 57.2 °F 33% 29.98 in 6.2 mi NNW 5.8 mph - N/A   Unknown
1:00 PM 89.6 °F 88.9 °F 59.0 °F 36% 29.98 in 6.2 mi NNW 6.9 mph - N/A   Unknown
1:30 PM 91.4 °F 89.9 °F 57.2 °F 31% 29.98 in 6.2 mi Variable 4.6 mph - N/A   Unknown
2:00 PM 93.2 °F 91.9 °F 57.2 °F 30% 29.98 in 6.2 mi Variable 3.5 mph - N/A   Unknown
2:30 PM 93.2 °F 91.3 °F 55.4 °F 28% 29.98 in 6.2 mi Variable 3.5 mph - N/A   Unknown
3:00 PM 95.0 °F 92.7 °F 53.6 °F 25% 29.95 in 6.2 mi Variable 4.6 mph - N/A   Unknown
3:30 PM 95.0 °F 93.0 °F 55.4 °F 26% 29.95 in 6.2 mi Variable 3.5 mph - N/A   Unknown
4:00 PM 95.0 °F 93.0 °F 55.4 °F 26% 29.95 in 6.2 mi NW 5.8 mph - N/A   Unknown
4:30 PM 96.8 °F 95.1 °F 55.4 °F 25% 29.95 in 6.2 mi NNE 5.8 mph - N/A   Unknown
5:00 PM 96.8 °F 95.1 °F 55.4 °F 25% 29.95 in 6.2 mi North 4.6 mph - N/A   Unknown
5:30 PM 96.8 °F 95.1 °F 55.4 °F 25% 29.95 in 6.2 mi Variable 6.9 mph 23.0 mph N/A   Unknown
6:00 PM 96.8 °F 94.4 °F 53.6 °F 23% 29.92 in 6.2 mi NNW 3.5 mph - N/A   Unknown
6:30 PM 96.8 °F 95.1 °F 55.4 °F 25% 29.92 in 6.2 mi West 5.8 mph - N/A   Unknown
7:00 PM 91.4 °F 94.0 °F 66.2 °F 43% 29.92 in 6.2 mi WSW 13.8 mph - N/A   Unknown
7:30 PM 87.8 °F 89.4 °F 64.4 °F 46% 29.95 in 6.2 mi West 12.7 mph - N/A   Unknown
8:00 PM 87.8 °F 89.4 °F 64.4 °F 46% 29.95 in 6.2 mi WSW 11.5 mph - N/A   Unknown
8:30 PM 86.0 °F 87.3 °F 64.4 °F 48% 29.95 in 6.2 mi WSW 9.2 mph - N/A   Unknown
9:00 PM 84.2 °F 86.6 °F 66.2 °F 55% 29.98 in 6.2 mi SW 9.2 mph - N/A   Unknown
9:30 PM 82.4 °F 84.6 °F 66.2 °F 58% 29.98 in 6.2 mi SW 8.1 mph - N/A   Unknown
10:00 PM 80.6 °F 82.3 °F 64.4 °F 58% 29.98 in 6.2 mi SW 6.9 mph - N/A   Unknown
10:30 PM 78.8 °F - 64.4 °F 61% 30.01 in 6.2 mi South 4.6 mph - N/A   Unknown
11:00 PM 77.0 °F - 64.4 °F 65% 30.01 in 6.2 mi Variable 2.3 mph - N/A   Unknown
11:30 PM 75.2 °F - 62.6 °F 65% 30.01 in 6.2 mi Variable 2.3 mph - N/A   Unknown